{"data":{"norad_id":48991,"epoch":"2026-09-19T16:18:21.039552Z","epoch_age_seconds":85396,"freshness":"FRESH","line1":"1 48991U 21060AA  26262.67941018 -.00000016  00000+0 -75207-4 0  9997","line2":"2 48991  87.9142 210.0205 0001998  72.7862 287.3487 13.16593498252022","mean_motion":13.16593498,"eccentricity":0.0001998,"inclination_deg":87.9142,"raan_deg":210.0205,"arg_perigee_deg":72.7862,"mean_anomaly_deg":287.3487,"bstar":-7.5207e-5,"rev_number":25202,"period_min":109.37316659907,"perigee_km":1196.2459145637,"apogee_km":1199.2732428365,"semimajor_km":7575.8965787001,"source":"CELESTRAK","updated_at":"2026-09-20T09:00:44.627857Z"}}